Weather History for Waukesha, WI

Change the Weather History Date:

Monday, October 17, 2011

  Actual Average Record
Temperature  
Mean Temperature 47 °F -  
Max Temperature 55 °F 59 °F 82 °F (1953)
Min Temperature 39 °F 38 °F 21 °F (1948)
Degree Days  
Heating Degree Days 18    
Moisture  
Dew Point 30 °F    
Average Humidity 56    
Maximum Humidity 70    
Minimum Humidity 33    
Precipitation  
Precipitation 0.00 in - - ()
Sea Level Pressure  
Sea Level Pressure 29.79 in    
Wind  
Wind Speed 14 mph (WSW)    
Max Wind Speed 22 mph    
Max Gust Speed 33 mph    
Visibility 10 miles    
Events      
Averages and records for this station are not official NWS values.
T = Trace of Precipitation, MM = Missing Value Source: NWS Daily Summary

Daily Weather History Graph

Daily Weather History Graph

Search for Another Location

Airport:

Trip Planner

Search our weather history database for the weather conditions in past years. The results will help you decide how hot, cold, wet, or windy it might be!

Date:

Astronomy

Oct. 17, 2011 Rise Set
Actual Time 7:08 AM CDT 6:07 PM CDT
Civil Twilight 6:39 AM CDT 6:36 PM CDT
Nautical Twilight 6:06 AM CDT 7:08 PM CDT
Astronomical Twilight 5:34 AM CDT 7:41 PM CDT
Moon 9:41 PM CDT 12:21 PM CDT
Length of Visible Light 11h 56m
Length of Day
10h 58m
Waning Gibbous, 74% of the Moon is Illuminated
Oct 17
Waning Gibbous
Oct 19
Last Quarter
Oct 26
New
Nov 2
First Quarter
Nov 10
Full

Hourly Weather History & Observations

Time (CDT) Temp. Windchill Dew Point Humidity Pressure Visibility Wind Dir Wind Speed Gust Speed Precip Events Conditions
12:15 AM 44.6 °F 37.8 °F 30.2 °F 57% 29.80 in 10.0 mi West 15.0 mph 19.6 mph N/A   Clear
12:35 AM 44.6 °F 38.4 °F 30.2 °F 57% 29.79 in 10.0 mi West 12.7 mph 20.7 mph N/A   Clear
12:55 AM 44.6 °F 37.2 °F 30.2 °F 57% 29.79 in 10.0 mi West 17.3 mph 24.2 mph N/A   Clear
1:15 AM 44.6 °F 37.2 °F 30.2 °F 57% 29.79 in 10.0 mi West 17.3 mph - N/A   Clear
1:35 AM 44.6 °F 37.2 °F 30.2 °F 57% 29.79 in 10.0 mi West 17.3 mph 23.0 mph N/A   Clear
1:55 AM 44.6 °F 37.2 °F 30.2 °F 57% 29.79 in 10.0 mi West 17.3 mph 24.2 mph N/A   Clear
2:35 AM 42.8 °F 36.6 °F 30.2 °F 61% 29.80 in 10.0 mi West 11.5 mph - N/A   Clear
3:15 AM 42.8 °F 35.8 °F 30.2 °F 61% 29.79 in 10.0 mi West 13.8 mph 17.3 mph N/A   Clear
3:35 AM 42.8 °F 36.2 °F 30.2 °F 61% 29.79 in 10.0 mi WSW 12.7 mph 18.4 mph N/A   Clear
3:55 AM 42.8 °F 35.8 °F 30.2 °F 61% 29.79 in 10.0 mi West 13.8 mph - N/A   Clear
4:15 AM 42.8 °F 35.1 °F 30.2 °F 61% 29.79 in 10.0 mi WSW 16.1 mph - N/A   Clear
4:35 AM 41.0 °F 34.3 °F 30.2 °F 65% 29.79 in 10.0 mi WSW 11.5 mph 20.7 mph N/A   Clear
5:15 AM 39.2 °F 32.5 °F 30.2 °F 70% 29.79 in 10.0 mi WSW 10.4 mph 18.4 mph N/A   Clear
5:35 AM 39.2 °F 31.6 °F 30.2 °F 70% 29.79 in 10.0 mi WSW 12.7 mph - N/A   Clear
5:45 AM 41.0 °F 34.3 °F 30.2 °F 65% 29.78 in 10.0 mi WSW 11.5 mph 23.0 mph N/A   Clear
6:45 AM 39.2 °F 31.6 °F 30.2 °F 70% 29.79 in 10.0 mi WSW 12.7 mph 24.2 mph N/A   Clear
7:45 AM 39.2 °F 31.6 °F 30.2 °F 70% 29.80 in 10.0 mi WSW 12.7 mph 21.9 mph N/A   Clear
8:45 AM 39.2 °F 32.0 °F 30.2 °F 70% 29.80 in 10.0 mi West 11.5 mph 25.3 mph N/A   Clear
9:45 AM 46.4 °F 41.1 °F 30.2 °F 53% 29.80 in 10.0 mi WSW 11.5 mph 19.6 mph N/A   Clear
10:45 AM 50.0 °F - 28.4 °F 43% 29.80 in 10.0 mi West 21.9 mph 33.4 mph N/A   Clear
11:45 AM 51.8 °F - 26.6 °F 38% 29.79 in 10.0 mi West 18.4 mph - N/A   Clear
12:45 PM 53.6 °F - 26.6 °F 35% 29.78 in 10.0 mi WSW 18.4 mph - N/A   Clear
1:45 PM 53.6 °F - 26.6 °F 35% 29.77 in 10.0 mi WSW 17.3 mph 28.8 mph N/A   Clear
2:45 PM 55.4 °F - 26.6 °F 33% 29.75 in 10.0 mi WSW 16.1 mph 28.8 mph N/A   Clear
3:45 PM 55.4 °F - 26.6 °F 33% 29.75 in 10.0 mi West 13.8 mph 25.3 mph N/A   Clear
4:45 PM 55.4 °F - 26.6 °F 33% 29.75 in 10.0 mi WSW 18.4 mph - N/A   Clear
5:45 PM 51.8 °F - 26.6 °F 38% 29.75 in 10.0 mi West 11.5 mph 28.8 mph N/A   Scattered Clouds
7:45 PM 46.4 °F 41.1 °F 32.0 °F 57% 29.80 in 10.0 mi WSW 11.5 mph - N/A   Clear
8:45 PM 46.4 °F 41.1 °F 32.0 °F 57% 29.81 in 10.0 mi WSW 11.5 mph - N/A   Clear
9:15 PM 44.6 °F 39.2 °F 32.0 °F 61% 29.81 in 10.0 mi WSW 10.4 mph - N/A   Clear
9:35 PM 44.6 °F 39.2 °F 32.0 °F 61% 29.81 in 10.0 mi WSW 10.4 mph - N/A   Clear
10:15 PM 42.8 °F 37.5 °F 30.2 °F 61% 29.80 in 10.0 mi WSW 9.2 mph - N/A   Clear
10:35 PM 42.8 °F 38.0 °F 30.2 °F 61% 29.81 in 10.0 mi SW 8.1 mph - N/A   Clear
10:55 PM 44.6 °F 38.8 °F 30.2 °F 57% 29.81 in 10.0 mi WSW 11.5 mph - N/A   Clear
11:15 PM 42.8 °F 37.5 °F 30.2 °F 61% 29.80 in 10.0 mi WSW 9.2 mph - N/A   Clear
11:35 PM 42.8 °F 38.0 °F 30.2 °F 61% 29.80 in 10.0 mi WSW 8.1 mph - N/A   Clear
11:55 PM 42.8 °F 38.6 °F 30.2 °F 61% 29.80 in 10.0 mi WSW 6.9 mph - N/A   Clear